Time,TemperatureF,DewpointF,PressureIn,WindDirection,WindDirectionDegrees,WindSpeedMPH,WindSpeedGustMPH,Humidity,HourlyPrecipIn,Conditions,Clouds,dailyrainin,SoftwareType,DateUTC
2013-03-03 00:01:00,39.4,32.0,30.17,West,270,0.0,0.0,75,0.00,,,0.00,WUHU21636XXSP,2013-03-03 06:01:00,
2013-03-03 00:11:00,39.7,32.4,30.17,West,270,0.0,0.0,75,0.00,,,0.00,WUHU21636XXSP,2013-03-03 06:11:00,
2013-03-03 00:21:00,39.4,32.0,30.17,WSW,247,0.0,0.0,74,0.00,,,0.00,WUHU21636XXSP,2013-03-03 06:21:00,
2013-03-03 00:31:00,38.8,31.8,30.17,WSW,247,0.0,0.0,76,0.00,,,0.00,WUHU21636XXSP,2013-03-03 06:31:00,
2013-03-03 00:41:00,38.3,31.3,30.16,West,270,0.0,2.2,76,0.00,,,0.00,WUHU21636XXSP,2013-03-03 06:41:00,
2013-03-03 00:51:00,37.8,31.1,30.16,West,270,0.0,0.4,77,0.00,,,0.00,WUHU21636XXSP,2013-03-03 06:51:00,
2013-03-03 01:01:00,37.6,30.9,30.15,West,270,0.0,0.0,78,0.00,,,0.00,WUHU21636XXSP,2013-03-03 07:01:00,
2013-03-03 01:11:00,37.6,30.9,30.15,West,270,0.0,0.0,78,0.00,,,0.00,WUHU21636XXSP,2013-03-03 07:11:00,
2013-03-03 01:21:00,37.6,30.9,30.15,West,270,2.9,2.9,78,0.00,,,0.00,WUHU21636XXSP,2013-03-03 07:21:00,
2013-03-03 01:31:00,37.6,30.9,30.15,West,270,0.0,2.9,78,0.00,,,0.00,WUHU21636XXSP,2013-03-03 07:31:00,
2013-03-03 01:41:00,37.2,30.9,30.14,West,270,0.0,0.0,78,0.00,,,0.00,WUHU21636XXSP,2013-03-03 07:41:00,
2013-03-03 01:51:00,37.0,30.7,30.14,WSW,247,0.2,0.8,78,0.00,,,0.00,WUHU21636XXSP,2013-03-03 07:51:00,
2013-03-03 02:01:00,36.7,30.7,30.13,West,270,1.1,2.4,79,0.00,,,0.00,WUHU21636XXSP,2013-03-03 08:01:00,
2013-03-03 02:11:00,36.7,30.7,30.13,West,270,0.0,5.5,79,0.00,,,0.00,WUHU21636XXSP,2013-03-03 08:11:00,
2013-03-03 02:21:00,36.3,30.4,30.13,West,270,0.0,0.6,79,0.00,,,0.00,WUHU21636XXSP,2013-03-03 08:21:00,
2013-03-03 02:31:00,36.1,30.2,30.12,West,270,0.0,0.0,79,0.00,,,0.00,WUHU21636XXSP,2013-03-03 08:31:00,
2013-03-03 02:41:00,36.0,30.0,30.12,West,270,0.6,0.6,79,0.00,,,0.00,WUHU21636XXSP,2013-03-03 08:41:00,
2013-03-03 02:51:00,35.8,29.8,30.12,West,270,0.4,1.7,79,0.00,,,0.00,WUHU21636XXSP,2013-03-03 08:51:00,
2013-03-03 03:01:00,35.4,29.8,30.11,WSW,247,2.2,2.2,80,0.00,,,0.00,WUHU21636XXSP,2013-03-03 09:01:00,
2013-03-03 03:11:00,35.2,29.7,30.10,West,270,3.3,3.8,80,0.00,,,0.00,WUHU21636XXSP,2013-03-03 09:11:00,
2013-03-03 03:21:00,35.2,29.8,30.09,West,270,4.0,4.0,81,0.00,,,0.00,WUHU21636XXSP,2013-03-03 09:21:00,
2013-03-03 03:31:00,35.2,29.8,30.09,West,270,3.1,6.4,81,0.00,,,0.00,WUHU21636XXSP,2013-03-03 09:31:00,
2013-03-03 03:41:00,35.2,29.8,30.08,WSW,247,0.0,3.1,81,0.00,,,0.00,WUHU21636XXSP,2013-03-03 09:41:00,
2013-03-03 03:51:00,35.2,29.8,30.08,West,270,1.1,4.4,81,0.00,,,0.00,WUHU21636XXSP,2013-03-03 09:51:00,
2013-03-03 04:01:00,34.9,29.5,30.06,WSW,247,0.4,1.1,81,0.00,,,0.00,WUHU21636XXSP,2013-03-03 10:01:00,
2013-03-03 04:11:00,34.9,29.5,30.06,West,270,2.0,2.9,81,0.00,,,0.00,WUHU21636XXSP,2013-03-03 10:11:00,
2013-03-03 04:21:00,34.7,29.3,30.06,West,270,0.6,2.0,81,0.00,,,0.00,WUHU21636XXSP,2013-03-03 10:21:00,
2013-03-03 04:31:00,34.7,29.3,30.06,West,270,3.1,3.1,81,0.00,,,0.00,WUHU21636XXSP,2013-03-03 10:31:00,
2013-03-03 04:41:00,35.1,29.7,30.06,West,270,4.0,4.6,81,0.00,,,0.00,WUHU21636XXSP,2013-03-03 10:41:00,
2013-03-03 04:51:00,35.1,29.7,30.05,West,270,0.0,4.0,80,0.00,,,0.00,WUHU21636XXSP,2013-03-03 10:51:00,
2013-03-03 05:01:00,34.7,29.1,30.04,West,270,1.3,4.4,80,0.00,,,0.00,WUHU21636XXSP,2013-03-03 11:01:00,
2013-03-03 05:12:00,34.7,29.3,30.04,West,270,0.0,1.3,80,0.00,,,0.00,WUHU21636XXSP,2013-03-03 11:12:00,
2013-03-03 05:22:00,34.5,28.9,30.03,West,270,0.0,0.0,80,0.00,,,0.00,WUHU21636XXSP,2013-03-03 11:22:00,
2013-03-03 05:32:00,34.5,28.9,30.03,West,270,0.6,0.6,81,0.00,,,0.00,WUHU21636XXSP,2013-03-03 11:32:00,
2013-03-03 05:42:00,34.5,28.9,30.03,West,270,0.0,0.6,81,0.00,,,0.00,WUHU21636XXSP,2013-03-03 11:42:00,
2013-03-03 05:52:00,34.5,28.9,30.03,West,270,2.2,2.6,80,0.00,,,0.00,WUHU21636XXSP,2013-03-03 11:52:00,
2013-03-03 06:02:00,34.3,28.8,30.03,WNW,292,3.1,3.1,80,0.00,,,0.00,WUHU21636XXSP,2013-03-03 12:02:00,
2013-03-03 06:12:00,34.0,28.6,30.03,WNW,292,0.4,3.3,81,0.00,,,0.00,WUHU21636XXSP,2013-03-03 12:12:00,
2013-03-03 06:22:00,34.0,28.6,30.03,West,270,1.1,1.3,81,0.00,,,0.00,WUHU21636XXSP,2013-03-03 12:22:00,
2013-03-03 06:32:00,34.0,28.6,30.03,WNW,292,1.7,4.0,81,0.00,,,0.00,WUHU21636XXSP,2013-03-03 12:32:00,
2013-03-03 06:42:00,33.8,28.8,30.03,WNW,292,2.0,2.9,82,0.00,,,0.00,WUHU21636XXSP,2013-03-03 12:42:00,
2013-03-03 06:52:00,33.8,28.8,30.03,West,270,4.6,4.6,82,0.00,,,0.00,WUHU21636XXSP,2013-03-03 12:52:00,
2013-03-03 07:02:00,33.6,28.6,30.03,WNW,292,6.2,6.2,82,0.00,,,0.00,WUHU21636XXSP,2013-03-03 13:02:00,
2013-03-03 07:12:00,33.6,28.6,30.02,West,270,1.3,6.2,82,0.00,,,0.00,WUHU21636XXSP,2013-03-03 13:12:00,
2013-03-03 07:22:00,33.6,28.6,30.01,West,270,0.0,2.0,82,0.00,,,0.00,WUHU21636XXSP,2013-03-03 13:22:00,
2013-03-03 07:32:00,33.8,28.8,30.01,West,270,1.3,1.7,82,0.00,,,0.00,WUHU21636XXSP,2013-03-03 13:32:00,
2013-03-03 07:42:00,34.2,29.1,30.01,West,270,1.1,3.1,82,0.00,,,0.00,WUHU21636XXSP,2013-03-03 13:42:00,
2013-03-03 07:52:00,34.3,29.3,30.01,West,270,0.8,3.8,82,0.00,,,0.00,WUHU21636XXSP,2013-03-03 13:52:00,
2013-03-03 08:02:00,34.5,29.5,30.01,West,270,2.4,2.4,81,0.00,,,0.00,WUHU21636XXSP,2013-03-03 14:02:00,
2013-03-03 08:12:00,34.5,29.5,30.01,West,270,0.0,2.6,81,0.00,,,0.00,WUHU21636XXSP,2013-03-03 14:12:00,
2013-03-03 08:22:00,34.7,29.3,30.00,West,270,0.0,0.0,81,0.00,,,0.00,WUHU21636XXSP,2013-03-03 14:22:00,
2013-03-03 08:32:00,35.2,29.7,29.99,West,270,0.0,0.0,80,0.00,,,0.00,WUHU21636XXSP,2013-03-03 14:32:00,
2013-03-03 08:42:00,35.8,30.4,29.99,West,270,0.0,0.0,81,0.00,,,0.00,WUHU21636XXSP,2013-03-03 14:42:00,
2013-03-03 08:52:00,36.3,30.7,29.99,West,270,0.0,0.0,80,0.00,,,0.00,WUHU21636XXSP,2013-03-03 14:52:00,
2013-03-03 09:02:00,37.0,31.1,29.98,West,270,0.0,0.0,79,0.00,,,0.00,WUHU21636XXSP,2013-03-03 15:02:00,
2013-03-03 09:12:00,37.6,31.3,29.98,West,270,0.0,0.0,78,0.00,,,0.00,WUHU21636XXSP,2013-03-03 15:12:00,
2013-03-03 09:22:00,37.9,32.0,29.98,West,270,0.0,0.0,79,0.00,,,0.00,WUHU21636XXSP,2013-03-03 15:22:00,
2013-03-03 09:32:00,37.9,32.0,29.98,West,270,0.0,0.0,79,0.00,,,0.00,WUHU21636XXSP,2013-03-03 15:32:00,
2013-03-03 09:42:00,38.3,32.4,29.98,West,270,0.0,0.0,79,0.00,,,0.00,WUHU21636XXSP,2013-03-03 15:42:00,
2013-03-03 09:52:00,38.8,32.5,29.96,West,270,0.0,0.0,77,0.00,,,0.00,WUHU21636XXSP,2013-03-03 15:52:00,
2013-03-03 10:02:00,39.4,32.4,29.96,West,270,0.0,0.0,76,0.00,,,0.00,WUHU21636XXSP,2013-03-03 16:02:00,
2013-03-03 10:12:00,40.1,33.1,29.96,West,270,0.0,0.0,76,0.00,,,0.00,WUHU21636XXSP,2013-03-03 16:12:00,
2013-03-03 10:22:00,40.8,33.4,29.96,West,270,0.0,0.0,75,0.00,,,0.00,WUHU21636XXSP,2013-03-03 16:22:00,
2013-03-03 10:32:00,41.4,33.6,29.96,West,270,0.0,0.0,74,0.00,,,0.00,WUHU21636XXSP,2013-03-03 16:32:00,
2013-03-03 10:42:00,42.3,34.2,29.95,West,270,0.0,0.0,73,0.00,,,0.00,WUHU21636XXSP,2013-03-03 16:42:00,
2013-03-03 10:52:00,43.0,34.9,29.95,WSW,247,0.0,0.0,73,0.00,,,0.00,WUHU21636XXSP,2013-03-03 16:52:00,
2013-03-03 11:02:00,43.7,35.2,29.94,WSW,247,0.0,0.0,72,0.00,,,0.00,WUHU21636XXSP,2013-03-03 17:02:00,
2013-03-03 11:12:00,44.8,35.8,29.94,WSW,247,0.0,0.0,71,0.00,,,0.00,WUHU21636XXSP,2013-03-03 17:12:00,
2013-03-03 11:22:00,45.3,36.3,29.93,WSW,247,0.0,0.0,71,0.00,,,0.00,WUHU21636XXSP,2013-03-03 17:22:00,
2013-03-03 11:32:00,45.9,36.9,29.92,WSW,247,0.0,0.0,71,0.00,,,0.00,WUHU21636XXSP,2013-03-03 17:32:00,
2013-03-03 11:42:00,46.2,37.0,29.92,WSW,247,0.0,0.0,70,0.00,,,0.00,WUHU21636XXSP,2013-03-03 17:42:00,
2013-03-03 11:52:00,46.9,36.9,29.91,WSW,247,0.0,0.0,68,0.00,,,0.00,WUHU21636XXSP,2013-03-03 17:52:00,
2013-03-03 12:02:00,47.5,37.8,29.90,WSW,247,0.0,0.0,69,0.00,,,0.00,WUHU21636XXSP,2013-03-03 18:02:00,
2013-03-03 12:12:00,47.8,38.1,29.91,WSW,247,0.0,0.0,69,0.00,,,0.00,WUHU21636XXSP,2013-03-03 18:12:00,
2013-03-03 12:22:00,48.9,38.7,29.90,WSW,247,0.0,0.0,68,0.00,,,0.00,WUHU21636XXSP,2013-03-03 18:22:00,
2013-03-03 12:32:00,50.4,38.8,29.90,West,270,0.0,0.0,65,0.00,,,0.00,WUHU21636XXSP,2013-03-03 18:32:00,
2013-03-03 12:42:00,50.5,39.6,29.90,WNW,292,0.0,0.0,65,0.00,,,0.00,WUHU21636XXSP,2013-03-03 18:42:00,
2013-03-03 12:52:00,52.0,41.4,29.88,South,180,0.0,0.0,67,0.00,,,0.00,WUHU21636XXSP,2013-03-03 18:52:00,
2013-03-03 13:02:00,53.4,41.4,29.87,South,180,0.0,0.0,64,0.00,,,0.00,WUHU21636XXSP,2013-03-03 19:02:00,
2013-03-03 13:12:00,54.3,41.0,29.86,SE,135,0.6,3.3,61,0.00,,,0.00,WUHU21636XXSP,2013-03-03 19:12:00,
2013-03-03 13:22:00,54.7,41.4,29.86,SE,135,1.1,1.1,60,0.00,,,0.00,WUHU21636XXSP,2013-03-03 19:22:00,
2013-03-03 13:32:00,54.3,40.3,29.85,SE,135,0.0,1.1,60,0.00,,,0.00,WUHU21636XXSP,2013-03-03 19:32:00,
2013-03-03 13:42:00,54.5,40.3,29.85,SSE,157,0.0,1.1,59,0.00,,,0.00,WUHU21636XXSP,2013-03-03 19:42:00,
2013-03-03 13:52:00,55.0,41.4,29.85,SE,135,0.0,0.0,59,0.00,,,0.00,WUHU21636XXSP,2013-03-03 19:52:00,
2013-03-03 14:03:00,55.6,41.9,29.84,SE,135,0.4,0.4,59,0.00,,,0.00,WUHU21636XXSP,2013-03-03 20:03:00,
2013-03-03 14:13:00,55.9,41.7,29.83,SE,135,2.9,2.9,59,0.00,,,0.00,WUHU21636XXSP,2013-03-03 20:13:00,
2013-03-03 14:23:00,56.5,42.3,29.83,SE,135,0.0,7.6,59,0.00,,,0.00,WUHU21636XXSP,2013-03-03 20:23:00,
2013-03-03 14:33:00,56.8,42.1,29.83,ESE,112,3.1,3.1,58,0.00,,,0.00,WUHU21636XXSP,2013-03-03 20:33:00,
2013-03-03 14:43:00,57.7,42.4,29.81,ESE,112,4.9,4.9,57,0.00,,,0.00,WUHU21636XXSP,2013-03-03 20:43:00,
2013-03-03 14:53:00,57.7,42.4,29.81,SE,135,0.8,8.0,57,0.00,,,0.00,WUHU21636XXSP,2013-03-03 20:53:00,
2013-03-03 15:03:00,56.8,40.8,29.80,SE,135,4.0,8.0,55,0.00,,,0.00,WUHU21636XXSP,2013-03-03 21:03:00,
2013-03-03 15:13:00,56.5,40.8,29.80,SSE,157,0.6,5.3,56,0.00,,,0.00,WUHU21636XXSP,2013-03-03 21:13:00,
2013-03-03 15:23:00,58.1,41.4,29.80,SSE,157,2.0,7.1,54,0.00,,,0.00,WUHU21636XXSP,2013-03-03 21:23:00,
2013-03-03 15:33:00,57.7,39.7,29.79,SSE,157,3.1,3.8,51,0.00,,,0.00,WUHU21636XXSP,2013-03-03 21:33:00,
2013-03-03 15:43:00,57.0,40.5,29.79,SE,135,0.0,3.1,54,0.00,,,0.00,WUHU21636XXSP,2013-03-03 21:43:00,
2013-03-03 15:53:00,57.0,40.5,29.78,South,180,3.5,3.5,54,0.00,,,0.00,WUHU21636XXSP,2013-03-03 21:53:00,
2013-03-03 16:03:00,57.4,39.9,29.79,South,180,0.0,5.1,52,0.00,,,0.00,WUHU21636XXSP,2013-03-03 22:03:00,
2013-03-03 16:13:00,57.4,39.9,29.80,SSE,157,1.1,3.3,52,0.00,,,0.00,WUHU21636XXSP,2013-03-03 22:13:00,
2013-03-03 16:23:00,57.6,40.5,29.79,SE,135,0.0,1.1,53,0.00,,,0.00,WUHU21636XXSP,2013-03-03 22:23:00,
2013-03-03 16:33:00,57.0,39.9,29.79,SSE,157,2.2,8.5,54,0.00,,,0.00,WUHU21636XXSP,2013-03-03 22:33:00,
2013-03-03 16:43:00,57.6,40.5,29.79,SSW,202,3.3,4.2,53,0.00,,,0.00,WUHU21636XXSP,2013-03-03 22:43:00,
2013-03-03 16:53:00,57.9,40.8,29.79,South,180,5.5,8.5,53,0.00,,,0.00,WUHU21636XXSP,2013-03-03 22:53:00,
2013-03-03 17:03:00,58.3,40.6,29.79,South,180,4.4,6.2,52,0.00,,,0.00,WUHU21636XXSP,2013-03-03 23:03:00,
2013-03-03 17:13:00,57.9,40.8,29.78,SSW,202,3.5,5.1,53,0.00,,,0.00,WUHU21636XXSP,2013-03-03 23:13:00,
2013-03-03 17:23:00,57.7,41.2,29.78,South,180,4.6,4.6,54,0.00,,,0.00,WUHU21636XXSP,2013-03-03 23:23:00,
2013-03-03 17:33:00,57.4,40.3,29.78,South,180,3.5,8.2,54,0.00,,,0.00,WUHU21636XXSP,2013-03-03 23:33:00,
2013-03-03 17:43:00,56.8,39.7,29.78,South,180,1.5,5.5,53,0.00,,,0.00,WUHU21636XXSP,2013-03-03 23:43:00,
2013-03-03 17:53:00,56.1,39.0,29.78,South,180,4.9,10.0,53,0.00,,,0.00,WUHU21636XXSP,2013-03-03 23:53:00,
2013-03-03 18:03:00,55.8,39.2,29.78,South,180,1.3,6.2,54,0.00,,,0.00,WUHU21636XXSP,2013-03-04 00:03:00,
2013-03-03 18:13:00,55.2,39.2,29.78,South,180,0.0,2.4,55,0.00,,,0.00,WUHU21636XXSP,2013-03-04 00:13:00,
2013-03-03 18:23:00,54.1,38.7,29.78,South,180,0.0,0.0,56,0.00,,,0.00,WUHU21636XXSP,2013-03-04 00:23:00,
2013-03-03 18:33:00,52.7,37.8,29.78,South,180,0.4,4.0,57,0.00,,,0.00,WUHU21636XXSP,2013-03-04 00:33:00,
2013-03-03 18:43:00,51.6,38.1,29.78,SSE,157,0.0,0.4,60,0.00,,,0.00,WUHU21636XXSP,2013-03-04 00:43:00,
2013-03-03 18:53:00,51.1,37.6,29.78,South,180,0.0,0.6,60,0.00,,,0.00,WUHU21636XXSP,2013-03-04 00:53:00,
2013-03-03 19:03:00,50.5,37.4,29.78,South,180,0.0,0.0,61,0.00,,,0.00,WUHU21636XXSP,2013-03-04 01:03:00,
2013-03-03 19:13:00,50.2,37.6,29.78,South,180,0.0,0.0,62,0.00,,,0.00,WUHU21636XXSP,2013-03-04 01:13:00,
2013-03-03 19:23:00,49.1,37.4,29.78,South,180,0.0,0.0,64,0.00,,,0.00,WUHU21636XXSP,2013-03-04 01:23:00,
2013-03-03 19:33:00,48.6,36.9,29.78,South,180,0.0,0.0,64,0.00,,,0.00,WUHU21636XXSP,2013-03-04 01:33:00,
2013-03-03 19:43:00,47.8,36.5,29.77,South,180,0.0,0.0,65,0.00,,,0.00,WUHU21636XXSP,2013-03-04 01:43:00,
2013-03-03 19:53:00,47.3,36.3,29.78,SSE,157,0.0,0.0,66,0.00,,,0.00,WUHU21636XXSP,2013-03-04 01:53:00,
2013-03-03 20:03:00,47.1,36.7,29.78,South,180,3.8,6.4,67,0.00,,,0.00,WUHU21636XXSP,2013-03-04 02:03:00,
2013-03-03 20:13:00,47.1,36.7,29.78,South,180,1.3,3.8,67,0.00,,,0.00,WUHU21636XXSP,2013-03-04 02:13:00,
2013-03-03 20:23:00,46.9,36.5,29.78,South,180,0.0,1.3,67,0.00,,,0.00,WUHU21636XXSP,2013-03-04 02:23:00,
2013-03-03 20:33:00,46.6,36.1,29.78,South,180,0.0,0.0,67,0.00,,,0.00,WUHU21636XXSP,2013-03-04 02:33:00,
2013-03-03 20:43:00,46.4,36.0,29.78,South,180,0.0,0.0,67,0.00,,,0.00,WUHU21636XXSP,2013-03-04 02:43:00,
2013-03-03 20:53:00,46.0,36.0,29.78,SSW,202,0.0,0.0,68,0.00,,,0.00,WUHU21636XXSP,2013-03-04 02:53:00,
2013-03-03 21:03:00,45.9,36.1,29.77,SSW,202,0.0,0.0,69,0.00,,,0.00,WUHU21636XXSP,2013-03-04 03:03:00,
2013-03-03 21:13:00,46.0,36.3,29.78,SSW,202,0.0,0.0,69,0.00,,,0.00,WUHU21636XXSP,2013-03-04 03:13:00,
2013-03-03 21:23:00,45.5,35.8,29.78,SSW,202,0.0,0.0,69,0.00,,,0.00,WUHU21636XXSP,2013-03-04 03:23:00,
2013-03-03 21:33:00,45.3,35.6,29.78,SSW,202,0.0,0.0,69,0.00,,,0.00,WUHU21636XXSP,2013-03-04 03:33:00,
2013-03-03 21:43:00,45.0,35.2,29.77,SSW,202,0.0,0.0,69,0.00,,,0.00,WUHU21636XXSP,2013-03-04 03:43:00,
2013-03-03 21:53:00,45.0,35.2,29.77,SSW,202,0.0,0.0,69,0.00,,,0.00,WUHU21636XXSP,2013-03-04 03:53:00,
2013-03-03 22:03:00,45.0,35.2,29.77,SSW,202,0.0,0.0,69,0.00,,,0.00,WUHU21636XXSP,2013-03-04 04:03:00,
2013-03-03 22:13:00,44.8,35.1,29.77,SSW,202,0.0,0.0,70,0.00,,,0.00,WUHU21636XXSP,2013-03-04 04:13:00,
2013-03-03 22:23:00,44.2,35.1,29.78,SSW,202,0.0,0.0,70,0.00,,,0.00,WUHU21636XXSP,2013-03-04 04:23:00,
2013-03-03 22:33:00,43.9,34.7,29.77,SSW,202,0.0,0.0,72,0.00,,,0.00,WUHU21636XXSP,2013-03-04 04:33:00,
2013-03-03 22:43:00,43.7,35.2,29.78,SW,225,0.0,0.0,73,0.00,,,0.00,WUHU21636XXSP,2013-03-04 04:43:00,
2013-03-03 22:53:00,44.1,35.8,29.78,West,270,0.0,0.0,73,0.00,,,0.00,WUHU21636XXSP,2013-03-04 04:53:00,
2013-03-03 23:03:00,44.2,36.0,29.78,West,270,0.0,0.0,73,0.00,,,0.00,WUHU21636XXSP,2013-03-04 05:03:00,
2013-03-03 23:13:00,43.9,35.6,29.78,West,270,0.0,0.0,74,0.00,,,0.00,WUHU21636XXSP,2013-03-04 05:13:00,
2013-03-03 23:23:00,43.3,35.2,29.78,West,270,0.0,0.0,73,0.00,,,0.00,WUHU21636XXSP,2013-03-04 05:23:00,
2013-03-03 23:33:00,43.0,35.2,29.78,West,270,0.0,0.0,74,0.00,,,0.00,WUHU21636XXSP,2013-03-04 05:33:00,
2013-03-03 23:43:00,42.6,34.9,29.78,West,270,0.0,0.0,74,0.00,,,0.00,WUHU21636XXSP,2013-03-04 05:43:00,
2013-03-03 23:53:00,42.6,34.9,29.78,West,270,0.0,0.0,74,0.00,,,0.00,WUHU21636XXSP,2013-03-04 05:53:00,